CW7769 Weather Reports


time (UTC)temp
C
wind
direction
speed
KPH
gust
KPH
rain 1hr
cm
rain 24hr
cm
rain mn
cm
humidity
%
barometer
mb
20260831101742 20 232 4.8 33.8 0.00 0.18 0.18 62 1016.8
20260831100728 20 241 9.7 33.8 0.00 0.18 0.18 59 1016.9
20260831095706 21 267 9.7 30.6 0.00 0.15 0.15 52 1016.6
20260831094729 21 211 9.7 19.3 0.00 0.15 0.15 52 1016.5
20260831093732 21 228 11.3 27.4 0.00 0.15 0.15 52 1016.6
20260831092719 21 180 9.7 27.4 0.00 0.15 0.15 53 1016.4
20260831091702 21 195 4.8 16.1 0.00 0.15 0.15 54 1016.5
20260831090722 20 182 4.8 20.9 0.00 0.15 0.15 56 1016.5
20260831083443 20 220 6.4 17.7 0.00 0.15 0.15 57 1016.5
20260831080140 21 225 4.8 16.1 0.00 0.15 0.15 59 1016.3
20260831075144 21 200 3.2 9.7 0.00 0.15 0.15 61 1016.3
20260831074150 20 230 3.2 14.5 0.00 0.15 0.15 62 1016.3
20260831073129 20 267 6.4 14.5 0.00 0.15 0.15 63 1016.2
20260831072057 20 215 1.6 9.7 0.00 0.15 0.15 67 1016.3
20260831065916 18 200 4.8 11.3 0.00 0.15 0.15 75 1016.1
20260831063820 18 201 1.6 6.4 0.00 0.15 0.15 77 1016.2
20260831062754 17 184 1.6 9.7 0.00 0.15 0.15 77 1016.1
20260831061721 17 188 1.6 9.7 0.00 0.15 0.15 77 1016.0
20260831060728 17 252 1.6 6.4 0.00 0.15 0.15 77 1016.1
20260831055710 17 166 1.6 8.0 0.00 0.15 0.15 76 1015.9
20260831054722 17 170 1.6 8.0 0.00 0.15 0.15 76 1016.0
20260831052559 17 191 1.6 9.7 0.00 0.15 0.15 75 1015.6
20260831051557 17 182 1.6 8.0 0.00 0.15 0.15 75 1015.6
20260831050605 17 190 1.6 8.0 0.00 0.15 0.15 75 1015.6
20260831044402 17 183 1.6 6.4 0.00 0.15 0.15 75 1015.4
20260831042223 17 178 1.6 4.8 0.00 0.15 0.15 75 1015.1
20260831041231 17 196 1.6 4.8 0.00 0.15 0.15 75 1015.2
20260831040236 17 176 1.6 4.8 0.00 0.15 0.15 75 1015.1
20260831035211 17 176 3.2 8.0 0.00 0.15 0.15 74 1015.0
20260831034216 17 185 1.6 8.0 0.00 0.15 0.15 74 1015.0
20260831033238 17 182 0.0 3.2 0.00 0.15 0.15 74 1015.1
20260831032244 17 182 0.0 3.2 0.00 0.15 0.15 73 1014.9
20260831024903 17 202 1.6 8.0 0.00 0.15 0.15 73 1014.9
20260831023842 17 203 1.6 4.8 0.00 0.15 0.15 73 1014.7
20260831022807 17 192 1.6 4.8 0.00 0.15 0.15 72 1014.7
20260831021826 17 213 1.6 6.4 0.00 0.15 0.15 72 1014.5
20260831020808 17 202 1.6 6.4 0.00 0.15 0.15 71 1014.5
20260831015831 17 221 1.6 4.8 0.00 0.15 0.15 71 1014.4
20260831014850 17 228 0.0 1.6 0.00 0.15 0.15 71 1014.3
20260831013857 17 276 0.0 0.0 0.00 0.15 0.15 70 1014.1
20260831012908 17 276 0.0 0.0 0.00 0.13 0.13 70 1014.5
20260831011900 17 276 0.0 0.0 0.00 0.13 0.13 70 1014.3
20260831010919 17 276 0.0 0.0 0.00 0.13 0.13 69 1014.3
20260831005929 18 276 0.0 0.0 0.00 0.13 0.13 69 1014.1
20260831004907 18 276 0.0 0.0 0.00 0.13 0.13 68 1014.0
20260831000540 18 276 0.0 0.0 0.08 0.10 0.10 67 1013.9
20260830234432 18 276 0.0 4.8 0.30 0.08 0.08 65 1014.1
20260830233413 18 261 0.0 0.0 0.00 0.00 0.00 64 1013.9
20260830232342 18 261 0.0 0.0 0.00 0.00 0.00 63 1013.4
20260830231359 18 261 0.0 0.0 0.00 0.00 0.00 63 1013.2
20260830225301 18 261 0.0 0.0 0.00 0.00 0.00 62 1013.1
20260830223137 18 261 0.0 0.0 0.00 0.00 0.00 62 1013.1
20260830222156 18 261 0.0 0.0 0.00 0.00 0.00 62 1013.2
20260830220048 18 261 0.0 0.0 0.00 0.00 0.00 61 1013.3
20260830215020 18 261 0.0 0.0 0.00 0.00 0.00 61 1013.4
20260830213948 18 261 0.0 0.0 0.00 0.00 0.00 60 1013.3
20260830212941 18 261 0.0 0.0 0.00 0.00 0.00 59 1013.4
20260830210906 19 258 0.0 0.0 0.00 0.00 0.00 58 1013.4
20260830205844 20 258 0.0 0.0 0.00 0.00 0.00 57 1013.4
20260830204845 20 258 0.0 0.0 0.00 0.00 0.00 57 1013.5
20260830203851 20 258 0.0 0.0 0.00 0.00 0.00 56 1013.6
20260830201803 20 258 0.0 0.0 0.00 0.00 0.00 55 1013.6
20260830200731 21 258 0.0 0.0 0.00 0.00 0.00 55 1013.7
20260830195746 21 258 0.0 0.0 0.00 0.00 0.00 54 1013.7
20260830193601 21 258 0.0 0.0 0.00 0.00 0.00 52 1013.8
20260830192532 22 258 0.0 0.0 0.00 0.00 0.00 51 1013.8
20260830191514 22 258 0.0 0.0 0.00 0.00 0.00 50 1013.7
20260830190501 22 258 0.0 0.0 0.00 0.00 0.00 49 1013.8
20260830185440 23 258 0.0 0.0 0.00 0.00 0.00 48 1013.7
20260830184434 23 258 0.0 0.0 0.00 0.00 0.00 47 1013.6
20260830183411 23 258 0.0 0.0 0.00 0.00 0.00 45 1013.6
20260830181313 25 258 0.0 0.0 0.00 0.00 0.00 42 1013.6
20260830180251 25 258 0.0 0.0 0.00 0.00 0.00 41 1013.6
20260830175237 25 258 0.0 0.0 0.00 0.00 0.00 40 1013.6
20260830174243 25 258 0.0 0.0 0.00 0.00 0.00 39 1013.6
20260830173244 26 258 0.0 0.0 0.00 0.00 0.00 38 1013.6
20260830172232 26 281 1.6 9.7 0.00 0.00 0.00 37 1013.6
20260830171250 26 295 1.6 9.7 0.00 0.00 0.00 37 1013.6
20260830170255 26 292 0.0 12.9 0.00 0.00 0.00 37 1013.7
20260830165224 26 208 1.6 12.9 0.00 0.00 0.00 36 1013.6
20260830161946 26 275 1.6 16.1 0.00 0.00 0.00 38 1013.9
20260830160914 26 194 1.6 8.0 0.00 0.00 0.00 40 1013.9
20260830155923 26 217 0.0 3.2 0.00 0.00 0.00 40 1013.9
20260830154933 26 177 3.2 12.9 0.00 0.00 0.00 39 1013.8
20260830152751 26 180 4.8 12.9 0.00 0.00 0.00 39 1013.8
20260830151720 26 198 3.2 12.9 0.00 0.00 0.00 39 1013.9
20260830150745 26 174 4.8 19.3 0.00 0.00 0.00 38 1014.0
20260830145710 26 219 4.8 14.5 0.00 0.00 0.00 38 1014.0
20260830144640 26 184 4.8 14.5 0.00 0.00 0.00 38 1014.1
20260830143637 26 267 4.8 14.5 0.00 0.00 0.00 38 1014.1
20260830142619 26 170 1.6 0.0 0.00 0.00 0.00 39 1014.1
20260830140529 26 172 3.2 12.9 0.00 0.00 0.00 42 1014.3
20260830135521 27 173 1.6 12.9 0.00 0.00 0.00 39 1014.3
20260830134514 27 250 3.2 16.1 0.00 0.00 0.00 39 1014.4
20260830133450 27 289 4.8 17.7 0.00 0.00 0.00 38 1014.4
20260830132501 26 209 6.4 17.7 0.00 0.00 0.00 40 1014.6
20260830131433 26 184 4.8 14.5 0.00 0.00 0.00 41 1014.6
20260830130448 26 244 3.2 20.9 0.00 0.00 0.00 39 1014.7
20260830124323 27 233 6.4 25.7 0.00 0.00 0.00 36 1014.7
20260830123257 27 197 6.4 25.7 0.00 0.00 0.00 35 1014.8
20260830122248 27 262 4.8 17.7 0.00 0.00 0.00 34 1014.8
20260830121227 26 238 6.4 25.7 0.00 0.00 0.00 36 1015.0
20260830120236 26 235 6.4 25.7 0.00 0.00 0.00 35 1014.9
20260830115203 26 298 6.4 17.7 0.00 0.00 0.00 36 1014.9
20260830114202 26 288 6.4 17.7 0.00 0.00 0.00 35 1015.0
20260830113220 26 284 4.8 16.1 0.00 0.00 0.00 35 1015.1
20260830111047 26 296 9.7 27.4 0.00 0.00 0.00 36 1015.2
20260830110100 26 224 9.7 22.5 0.00 0.00 0.00 36 1015.4
20260830105104 26 273 6.4 29.0 0.00 0.00 0.00 37 1015.3
20260830104111 25 304 8.0 29.0 0.00 0.00 0.00 38 1015.4
20260830103047 25 281 8.0 25.7 0.00 0.00 0.00 38 1015.4
20260830102054 25 244 6.4 24.1 0.00 0.00 0.00 38 1015.4